When you browse on this site, cookies collect data to enhance your experience and personalize the content and advertising you see.
Visit our Privacy Policy to learn more. By continuing to use the site, you agree to this use of cookies and data.
  • In France
  • List of Countries
  • For 7 days
  • Water Temperature
  • Weather Map
  • Weather Widgets
  • user-avatar
    Login

    Hourly Weather Kribi

    Today, 1 June, Monday

    Time Temperature Precipitation Wind Pressure Humidity
    00:00 +26°C° 0.1 mm 3 mps 759 mmHg 98%
    01:00 +26°C° 0 mm 3 mps 759 mmHg 99%
    02:00 +26°C° 0.1 mm 3 mps 759 mmHg 98%
    03:00 +26°C° 0.1 mm 2 mps 758 mmHg 98%
    04:00 +26°C° 0.1 mm 2 mps 758 mmHg 98%
    05:00 +26°C° 0.2 mm 2 mps 759 mmHg 98%
    06:00 +26°C° 0.2 mm 2 mps 759 mmHg 97%
    07:00 +27°C° 0.2 mm 2 mps 759 mmHg 97%
    08:00 +27°C° 1.1 mm 2 mps 759 mmHg 95%
    09:00 +28°C° 1.1 mm 2 mps 759 mmHg 92%
    10:00 +29°C° 1.1 mm 2 mps 760 mmHg 90%
    11:00 +30°C° 0.8 mm 2 mps 759 mmHg 89%
    12:00 +30°C° 0.8 mm 3 mps 759 mmHg 87%
    13:00 +30°C° 0.8 mm 3 mps 758 mmHg 86%
    14:00 +30°C° 0.6 mm 3 mps 758 mmHg 87%
    15:00 +30°C° 0.6 mm 4 mps 757 mmHg 87%
    16:00 +30°C° 0.6 mm 4 mps 756 mmHg 87%
    17:00 +29°C° 0.1 mm 4 mps 757 mmHg 90%
    18:00 +28°C° 0.1 mm 3 mps 757 mmHg 93%
    19:00 +27°C° 0.1 mm 3 mps 758 mmHg 96%
    20:00 +27°C° 1.2 mm 3 mps 758 mmHg 97%
    21:00 +27°C° 1.2 mm 3 mps 758 mmHg 97%
    22:00 +26°C° 1.2 mm 3 mps 759 mmHg 98%
    23:00 +26°C° 0.8 mm 3 mps 759 mmHg 98%

    Tomorrow, 2 June, Tuesday

    Time Temperature Precipitation Wind Pressure Humidity
    00:00 +26°C° 0.8 mm 3 mps 759 mmHg 98%
    01:00 +26°C° 0.8 mm 3 mps 759 mmHg 98%
    02:00 +26°C° 2.3 mm 3 mps 758 mmHg 98%
    03:00 +26°C° 2.3 mm 4 mps 758 mmHg 97%
    04:00 +26°C° 2.3 mm 4 mps 758 mmHg 97%
    05:00 +26°C° 0.5 mm 4 mps 758 mmHg 97%
    06:00 +26°C° 0.5 mm 3 mps 759 mmHg 97%
    07:00 +26°C° 0.5 mm 3 mps 759 mmHg 97%
    08:00 +28°C° 0.1 mm 3 mps 759 mmHg 92%
    09:00 +29°C° 0.1 mm 3 mps 759 mmHg 87%
    10:00 +30°C° 0.1 mm 3 mps 760 mmHg 81%
    11:00 +31°C° 0.9 mm 3 mps 759 mmHg 78%
    12:00 +31°C° 0.9 mm 3 mps 759 mmHg 75%
    13:00 +33°C° 0.9 mm 3 mps 758 mmHg 72%
    14:00 +30°C° 1.3 mm 4 mps 758 mmHg 80%
    15:00 +29°C° 1.3 mm 4 mps 757 mmHg 88%
    16:00 +27°C° 1.3 mm 4 mps 756 mmHg 95%
    17:00 +27°C° 1 mm 4 mps 757 mmHg 96%
    18:00 +27°C° 1 mm 4 mps 757 mmHg 96%
    19:00 +27°C° 1 mm 3 mps 758 mmHg 96%
    20:00 +26°C° 0.7 mm 3 mps 758 mmHg 97%
    21:00 +26°C° 0.7 mm 3 mps 758 mmHg 97%
    22:00 +26°C° 0.7 mm 3 mps 759 mmHg 97%
    23:00 +26°C° 0.7 mm 3 mps 759 mmHg 97%

    Day after tomorrow, 3 June, Wednesday

    Time Temperature Precipitation Wind Pressure Humidity
    00:00 +26°C° 0.7 mm 2 mps 759 mmHg 97%
    01:00 +26°C° 0.7 mm 2 mps 759 mmHg 98%
    02:00 +25°C° 1.3 mm 2 mps 758 mmHg 98%
    03:00 +25°C° 1.3 mm 2 mps 758 mmHg 98%
    04:00 +25°C° 1.3 mm 2 mps 758 mmHg 98%
    05:00 +25°C° 0.3 mm 2 mps 758 mmHg 98%
    06:00 +25°C° 0.3 mm 1 mps 758 mmHg 98%
    07:00 +26°C° 0.3 mm 1 mps 759 mmHg 97%
    08:00 +28°C° 0.1 mm 1 mps 759 mmHg 90%
    09:00 +29°C° 0.1 mm 1 mps 759 mmHg 83%
    10:00 +31°C° 0.1 mm 1 mps 760 mmHg 76%
    11:00 +32°C° 0 mm 2 mps 759 mmHg 73%
    12:00 +32°C° 0 mm 2 mps 758 mmHg 70%
    13:00 +33°C° 0 mm 3 mps 758 mmHg 68%
    14:00 +33°C° 0 mm 3 mps 757 mmHg 70%
    15:00 +31°C° 0 mm 3 mps 757 mmHg 72%
    16:00 +32°C° 0 mm 4 mps 756 mmHg 74%
    17:00 +30°C° 0 mm 3 mps 756 mmHg 80%
    18:00 +29°C° 0 mm 3 mps 757 mmHg 86%
    19:00 +27°C° 0 mm 3 mps 757 mmHg 91%
    20:00 +27°C° 0 mm 3 mps 757 mmHg 92%
    21:00 +27°C° 0 mm 2 mps 758 mmHg 92%
    22:00 +27°C° 0 mm 2 mps 758 mmHg 93%
    23:00 +27°C° 0 mm 2 mps 758 mmHg 93%

    4 June, Thursday

    Time Temperature Precipitation Wind Pressure Humidity
    00:00 +27°C° 0 mm 2 mps 758 mmHg 94%
    01:00 +27°C° 0 mm 2 mps 758 mmHg 94%
    02:00 +27°C° 0.3 mm 2 mps 758 mmHg 95%
    03:00 +27°C° 0.3 mm 2 mps 757 mmHg 95%
    04:00 +26°C° 0.3 mm 2 mps 757 mmHg 96%
    05:00 +26°C° 0.2 mm 2 mps 757 mmHg 96%
    06:00 +26°C° 0.2 mm 2 mps 758 mmHg 95%
    07:00 +27°C° 0.2 mm 2 mps 758 mmHg 95%
    08:00 +28°C° 0.1 mm 2 mps 758 mmHg 89%
    09:00 +29°C° 0.1 mm 2 mps 759 mmHg 83%
    10:00 +30°C° 0.1 mm 2 mps 759 mmHg 77%
    11:00 +31°C° 0 mm 3 mps 758 mmHg 73%
    12:00 +33°C° 0 mm 3 mps 758 mmHg 69%
    13:00 +34°C° 0 mm 4 mps 758 mmHg 65%
    14:00 +33°C° 0.1 mm 4 mps 757 mmHg 68%
    15:00 +33°C° 0.1 mm 4 mps 756 mmHg 71%
    16:00 +32°C° 0.1 mm 4 mps 756 mmHg 74%
    17:00 +30°C° 0 mm 4 mps 756 mmHg 80%
    18:00 +29°C° 0 mm 4 mps 757 mmHg 85%
    19:00 +28°C° 0 mm 4 mps 757 mmHg 91%
    20:00 +28°C° 0.2 mm 4 mps 758 mmHg 92%
    21:00 +27°C° 0.2 mm 3 mps 758 mmHg 94%
    22:00 +27°C° 0.2 mm 3 mps 758 mmHg 95%
    23:00 +27°C° 1.5 mm 3 mps 758 mmHg 95%

    5 June, Friday

    Time Temperature Precipitation Wind Pressure Humidity
    00:00 +27°C° 1.5 mm 4 mps 758 mmHg 96%
    01:00 +27°C° 1.5 mm 4 mps 758 mmHg 96%
    02:00 +26°C° 2.6 mm 4 mps 758 mmHg 97%
    03:00 +26°C° 2.6 mm 4 mps 758 mmHg 97%
    04:00 +26°C° 2.6 mm 4 mps 757 mmHg 97%
    05:00 +26°C° 0.4 mm 4 mps 758 mmHg 96%
    06:00 +26°C° 0.4 mm 3 mps 758 mmHg 96%
    07:00 +26°C° 0.4 mm 3 mps 759 mmHg 95%
    08:00 +28°C° 0.2 mm 3 mps 759 mmHg 86%
    09:00 +30°C° 0.2 mm 3 mps 759 mmHg 76%
    10:00 +33°C° 0.2 mm 3 mps 760 mmHg 67%
    11:00 +33°C° 0.2 mm 4 mps 759 mmHg 68%
    12:00 +33°C° 0.2 mm 4 mps 759 mmHg 69%
    13:00 +33°C° 0.2 mm 4 mps 758 mmHg 70%
    14:00 +33°C° 0.2 mm 4 mps 758 mmHg 71%
    15:00 +32°C° 0.2 mm 4 mps 757 mmHg 72%
    16:00 +31°C° 0.2 mm 3 mps 757 mmHg 74%
    17:00 +30°C° 0 mm 3 mps 757 mmHg 79%
    18:00 +29°C° 0 mm 3 mps 757 mmHg 84%
    19:00 +28°C° 0 mm 2 mps 758 mmHg 89%
    20:00 +27°C° 0 mm 2 mps 758 mmHg 91%
    21:00 +27°C° 0 mm 2 mps 758 mmHg 92%
    22:00 +27°C° 0 mm 2 mps 759 mmHg 93%
    23:00 +27°C° 0 mm 2 mps 758 mmHg 94%

    6 June, Saturday

    Time Temperature Precipitation Wind Pressure Humidity
    00:00 +26°C° 0 mm 1 mps 758 mmHg 95%
    01:00 +26°C° 0 mm 1 mps 758 mmHg 96%
    02:00 +26°C° 0.2 mm 1 mps 758 mmHg 95%
    03:00 +26°C° 0.2 mm 1 mps 758 mmHg 94%
    04:00 +25°C° 0.2 mm 0 mps 758 mmHg 93%
    05:00 +25°C° 0.1 mm 0 mps 758 mmHg 93%
    06:00 +25°C° 0.1 mm 0 mps 759 mmHg 92%
    07:00 +25°C° 0.1 mm 0 mps 759 mmHg 91%
    08:00 +29°C° 0.1 mm 1 mps 759 mmHg 84%
    09:00 +30°C° 0.1 mm 1 mps 760 mmHg 77%
    10:00 +32°C° 0.1 mm 1 mps 760 mmHg 70%
    11:00 +32°C° 0.6 mm 1 mps 759 mmHg 75%
    12:00 +31°C° 0.6 mm 2 mps 759 mmHg 79%
    13:00 +30°C° 0.6 mm 3 mps 758 mmHg 84%
    14:00 +30°C° 0.3 mm 3 mps 758 mmHg 84%
    15:00 +30°C° 0.3 mm 3 mps 757 mmHg 83%
    16:00 +30°C° 0.3 mm 3 mps 757 mmHg 82%
    17:00 +29°C° 0 mm 3 mps 757 mmHg 85%
    18:00 +28°C° 0 mm 3 mps 757 mmHg 88%
    19:00 +28°C° 0 mm 3 mps 758 mmHg 91%
    20:00 +28°C° 0 mm 3 mps 758 mmHg 91%
    21:00 +27°C° 0 mm 3 mps 758 mmHg 92%
    22:00 +27°C° 0 mm 4 mps 758 mmHg 92%
    23:00 +27°C° 0.1 mm 3 mps 758 mmHg 93%
    Show more